Hourly Weather Murovanoye

Today, 28 September, Tuesday

Time Temperature Precipitation Wind Pressure Humidity
00:00 +7°C° 0 mm 4 mps 748 mmHg 81%
01:00 +7°C° 0 mm 3 mps 748 mmHg 83%
02:00 +7°C° 0 mm 3 mps 748 mmHg 86%
03:00 +5°C° 0 mm 3 mps 748 mmHg 87%
04:00 +5°C° 0 mm 3 mps 748 mmHg 89%
05:00 +4°C° 0 mm 3 mps 748 mmHg 90%
06:00 +5°C° 0 mm 4 mps 748 mmHg 87%
07:00 +6°C° 0 mm 4 mps 748 mmHg 83%
08:00 +7°C° 0 mm 4 mps 748 mmHg 79%
09:00 +8°C° 0 mm 5 mps 748 mmHg 73%
10:00 +10°C° 0 mm 5 mps 749 mmHg 66%
11:00 +13°C° 0 mm 5 mps 749 mmHg 59%
12:00 +14°C° 0 mm 5 mps 749 mmHg 57%
13:00 +14°C° 0 mm 5 mps 749 mmHg 54%
14:00 +15°C° 0 mm 5 mps 749 mmHg 52%
15:00 +15°C° 0 mm 4 mps 749 mmHg 55%
16:00 +14°C° 0 mm 4 mps 749 mmHg 57%
17:00 +14°C° 0 mm 4 mps 749 mmHg 60%
18:00 +12°C° 0 mm 4 mps 749 mmHg 64%
19:00 +11°C° 0 mm 4 mps 749 mmHg 68%
20:00 +8°C° 0 mm 5 mps 750 mmHg 72%
21:00 +8°C° 0 mm 4 mps 750 mmHg 74%
22:00 +7°C° 0 mm 4 mps 750 mmHg 77%
23:00 +7°C° 0 mm 3 mps 750 mmHg 80%

Tomorrow, 29 September, Wednesday

Time Temperature Precipitation Wind Pressure Humidity
00:00 +7°C° 0 mm 3 mps 750 mmHg 81%
01:00 +7°C° 0 mm 3 mps 750 mmHg 82%
02:00 +7°C° 0 mm 3 mps 750 mmHg 83%
03:00 +7°C° 0 mm 3 mps 750 mmHg 83%
04:00 +5°C° 0 mm 3 mps 750 mmHg 83%
05:00 +5°C° 0 mm 3 mps 750 mmHg 83%
06:00 +6°C° 0 mm 4 mps 750 mmHg 80%
07:00 +7°C° 0 mm 4 mps 750 mmHg 76%
08:00 +8°C° 0 mm 5 mps 750 mmHg 72%
09:00 +10°C° 0 mm 6 mps 750 mmHg 65%
10:00 +13°C° 0 mm 6 mps 750 mmHg 58%
11:00 +14°C° 0 mm 7 mps 750 mmHg 51%
12:00 +15°C° 0 mm 7 mps 750 mmHg 49%
13:00 +16°C° 0 mm 7 mps 750 mmHg 47%
14:00 +16°C° 0 mm 7 mps 750 mmHg 45%
15:00 +16°C° 0 mm 6 mps 750 mmHg 48%
16:00 +15°C° 0 mm 6 mps 750 mmHg 51%
17:00 +15°C° 0 mm 5 mps 749 mmHg 54%
18:00 +13°C° 0 mm 5 mps 750 mmHg 58%
19:00 +12°C° 0 mm 5 mps 750 mmHg 61%
20:00 +10°C° 0 mm 5 mps 750 mmHg 64%
21:00 +9°C° 0 mm 5 mps 750 mmHg 64%
22:00 +9°C° 0 mm 5 mps 750 mmHg 65%
23:00 +9°C° 0 mm 5 mps 750 mmHg 65%

Day after tomorrow, 30 September, Thursday

Time Temperature Precipitation Wind Pressure Humidity
00:00 +8°C° 0 mm 5 mps 750 mmHg 66%
01:00 +8°C° 0 mm 5 mps 750 mmHg 67%
02:00 +8°C° 0 mm 5 mps 750 mmHg 68%
03:00 +8°C° 0 mm 5 mps 750 mmHg 66%
04:00 +9°C° 0 mm 5 mps 750 mmHg 64%
05:00 +9°C° 0 mm 5 mps 750 mmHg 62%
06:00 +9°C° 0 mm 5 mps 750 mmHg 62%
07:00 +10°C° 0 mm 4 mps 750 mmHg 63%
08:00 +10°C° 0 mm 4 mps 751 mmHg 64%
09:00 +11°C° 0 mm 4 mps 751 mmHg 63%
10:00 +12°C° 0 mm 4 mps 751 mmHg 63%
11:00 +12°C° 0 mm 4 mps 751 mmHg 63%
12:00 +12°C° 0 mm 3 mps 751 mmHg 65%
13:00 +12°C° 0 mm 3 mps 752 mmHg 68%
14:00 +13°C° 0 mm 3 mps 752 mmHg 71%
15:00 +13°C° 0 mm 2 mps 752 mmHg 77%
16:00 +13°C° 0 mm 2 mps 752 mmHg 83%
17:00 +12°C° 0 mm 1 mps 752 mmHg 89%
18:00 +12°C° 0.1 mm 1 mps 752 mmHg 91%
19:00 +12°C° 0.1 mm 2 mps 752 mmHg 93%
20:00 +12°C° 0.1 mm 2 mps 753 mmHg 95%
21:00 +12°C° 0.2 mm 1 mps 753 mmHg 95%
22:00 +12°C° 0.2 mm 1 mps 753 mmHg 96%
23:00 +12°C° 0.2 mm 1 mps 753 mmHg 96%

1 October, Friday

Time Temperature Precipitation Wind Pressure Humidity
00:00 +12°C° 0 mm 1 mps 753 mmHg 96%
01:00 +12°C° 0 mm 2 mps 753 mmHg 96%
02:00 +12°C° 0 mm 2 mps 753 mmHg 96%
03:00 +12°C° 0 mm 2 mps 753 mmHg 95%
04:00 +12°C° 0 mm 2 mps 753 mmHg 94%
05:00 +12°C° 0 mm 2 mps 753 mmHg 93%
06:00 +12°C° 0 mm 2 mps 753 mmHg 89%
07:00 +12°C° 0 mm 2 mps 753 mmHg 84%
08:00 +12°C° 0 mm 2 mps 753 mmHg 80%
09:00 +13°C° 0 mm 2 mps 753 mmHg 72%
10:00 +12°C° 0 mm 3 mps 753 mmHg 65%
11:00 +13°C° 0 mm 3 mps 753 mmHg 58%
12:00 +14°C° 0 mm 3 mps 753 mmHg 55%
13:00 +15°C° 0 mm 4 mps 753 mmHg 52%
14:00 +17°C° 0 mm 4 mps 752 mmHg 48%
15:00 +17°C° 0 mm 4 mps 752 mmHg 51%
16:00 +16°C° 0 mm 3 mps 752 mmHg 53%
17:00 +16°C° 0 mm 3 mps 752 mmHg 55%
18:00 +13°C° 0 mm 3 mps 752 mmHg 56%
19:00 +12°C° 0 mm 3 mps 752 mmHg 58%
20:00 +10°C° 0 mm 3 mps 752 mmHg 59%
21:00 +10°C° 0 mm 3 mps 752 mmHg 58%
22:00 +9°C° 0 mm 3 mps 751 mmHg 56%
23:00 +9°C° 0 mm 3 mps 751 mmHg 54%

2 October, Saturday

Time Temperature Precipitation Wind Pressure Humidity
00:00 +8°C° 0 mm 3 mps 751 mmHg 54%
01:00 +8°C° 0 mm 3 mps 751 mmHg 54%
02:00 +7°C° 0 mm 3 mps 750 mmHg 53%
03:00 +7°C° 0 mm 3 mps 750 mmHg 54%
04:00 +7°C° 0 mm 3 mps 750 mmHg 55%
05:00 +7°C° 0 mm 3 mps 749 mmHg 55%
06:00 +7°C° 0 mm 3 mps 749 mmHg 56%
07:00 +7°C° 0 mm 4 mps 749 mmHg 56%
08:00 +8°C° 0 mm 4 mps 749 mmHg 57%
09:00 +11°C° 0 mm 4 mps 749 mmHg 53%
10:00 +13°C° 0 mm 5 mps 749 mmHg 49%
11:00 +15°C° 0 mm 6 mps 749 mmHg 46%
12:00 +15°C° 0 mm 6 mps 748 mmHg 44%
13:00 +16°C° 0 mm 6 mps 748 mmHg 42%
14:00 +17°C° 0 mm 6 mps 748 mmHg 40%
15:00 +16°C° 0 mm 6 mps 748 mmHg 43%
16:00 +16°C° 0 mm 5 mps 747 mmHg 46%
17:00 +15°C° 0 mm 5 mps 747 mmHg 49%
18:00 +13°C° 0 mm 5 mps 747 mmHg 50%
19:00 +12°C° 0 mm 5 mps 747 mmHg 51%
20:00 +10°C° 0 mm 4 mps 747 mmHg 52%
21:00 +10°C° 0 mm 4 mps 747 mmHg 50%
22:00 +10°C° 0 mm 4 mps 747 mmHg 49%
23:00 +10°C° 0 mm 4 mps 747 mmHg 48%

3 October, Sunday

Time Temperature Precipitation Wind Pressure Humidity
00:00 +8°C° 0 mm 4 mps 747 mmHg 48%
01:00 +7°C° 0 mm 4 mps 747 mmHg 48%
02:00 +8°C° 0 mm 3 mps 746 mmHg 49%
03:00 +7°C° 0 mm 3 mps 746 mmHg 50%
04:00 +7°C° 0 mm 3 mps 746 mmHg 52%
05:00 +7°C° 0 mm 3 mps 746 mmHg 53%
06:00 +7°C° 0 mm 3 mps 746 mmHg 56%
07:00 +7°C° 0 mm 4 mps 746 mmHg 58%
08:00 +7°C° 0 mm 4 mps 746 mmHg 60%
09:00 +10°C° 0 mm 4 mps 746 mmHg 56%
10:00 +12°C° 0 mm 5 mps 746 mmHg 53%
11:00 +14°C° 0 mm 5 mps 746 mmHg 49%
12:00 +15°C° 0 mm 6 mps 745 mmHg 47%
13:00 +16°C° 0 mm 6 mps 745 mmHg 45%
14:00 +17°C° 0 mm 7 mps 744 mmHg 43%
15:00 +16°C° 0 mm 6 mps 744 mmHg 44%
16:00 +16°C° 0 mm 6 mps 744 mmHg 44%
17:00 +15°C° 0 mm 6 mps 744 mmHg 45%
18:00 +14°C° 0 mm 6 mps 744 mmHg 48%
19:00 +13°C° 0 mm 6 mps 744 mmHg 50%
20:00 +10°C° 0 mm 6 mps 744 mmHg 53%
21:00 +10°C° 0 mm 6 mps 743 mmHg 55%
22:00 +10°C° 0 mm 5 mps 743 mmHg 56%
23:00 +10°C° 0 mm 5 mps 743 mmHg 58%
Show more

We Need Your Consent

Meteoprog and our Service Providers may store and access personal data such as cookies, device identifiers or other similar technologies on your device and process such data to personalise content and ads, as well as provide social media features and to analyse the traffic.

  • Store and/or access information on your device

    Cookies, device identifiers or other information can be stored or accessed on your device for the purposes indicated above.

  • Personalised ads and content, ad and content measurement, audience insights, and products development

    Ads and content can be personalised based on a profile. More data can be added to better personalise ads and content. Ad and content performance can be measured. Insights about the audience who saw the ads and content can be derived. Such data can be used to develop or improve user’s experience, systems and software.

By clicking ‘I Agree’ you will allow the use of indicated cookies, device identifiers, web beacons or other similar technologies. Your settings can be changed in the browser on your device.

For certain purposes, legitimate interests may be relied on, rather than consent. You can read more about this in our Privacy and Cookie Policy.